Location: Chandrammap?lem
(16.9200°N, 81.0051°E)
Time: 03:27:54
(UTC+00:00)

Resurs 01 Rocket - Pass Details

Date: 29 May 2024
Orbit: 629 x 641 km, 97.8° (Epoch: 21 June)

Event Time Altitude Azimuth Distance (km) Brightness Sun altitude
Exits shadow 13:43:42 - 93° (E) 2,070 3.7 -9.2°
Reaches altitude 10° 13:44:03 10° 89° (E) 2,026 3.7 -9.3°
Maximum altitude 13:45:15 11° 73° (ENE) 1,960 3.7 -9.5°
Drops below altitude 10° 13:46:26 10° 57° (ENE) 2,026 3.9 -9.8°
Sets 13:50:20 0° 22° (NNE) 2,934 5.1 -10.6°
